Regional Weather Roundup
Issued by NWS

Home | Current Version | Previous Version | Graphics & Text | Print | Product List | Glossary On
Versions: 1 2 3 4 5 6 7 8 9 10 11 12 13 14 15 16 17 18 19 20 21 22 23 24 25 26 27 28 29 30 31 32 33 34 35 36 37 38 39 40 41 42 43 44 45 46 47 48 49 50
985
ASUS43 KTOP 211708
RWRKS

WEATHER ROUNDUP FOR KANSAS
NATIONAL WEATHER SERVICE GOODLAND KS
1100 AM CST TUE FEB 21 2017

NOTE:  "FAIR" INDICATES FEW OR NO CLOUDS BELOW 12,000 FEET WITH NO
SIGNIFICANT WEATHER AND/OR OBSTRUCTIONS TO VISIBILITY.

KSZ001>006-013>018-027>032-041>047-211800-
NORTHWEST KANSAS

CITY           SKY/WX    TMP DP  RH WIND       PRES   REMARKS
GOODLAND       SUNNY     64  24  21 N7        30.04R
HAYS           SUNNY     61  34  36 SW15      30.05F
HILL CITY      SUNNY     65  25  22 SW14G22   30.03F
RUSSELL        SUNNY     60  34  37 SW14      30.04S
$$

KSZ061>065-074>080-084>089-211800-
SOUTHWEST KANSAS

CITY           SKY/WX    TMP DP  RH WIND       PRES   REMARKS
DODGE CITY     SUNNY     62  30  29 S16       30.07F
ELKHART          N/A     66  27  23 SW3         N/A
GARDEN CITY    SUNNY     65  15  14 S18       30.04F
GREAT BEND     SUNNY     62  34  35 SW12      30.05F
LIBERAL        SUNNY     64  23  20 S17       30.09F
PRATT          SUNNY     61  30  30 W10       30.06S
$$

KSZ066>073-081>083-090>101-211800-
SOUTHEAST KANSAS

CITY           SKY/WX    TMP DP  RH WIND       PRES   REMARKS
CHANUTE        SUNNY     63  50  62 N8        29.99S
COFFEYVILLE    SUNNY     58  51  78 NW5       29.99R
HUTCHINSON     SUNNY     61  36  39 W9        30.05S
MEDICINE LODGE   N/A     62  32  32 VRB3      30.05S
NEWTON         SUNNY     57  43  59 NW6       30.05S
PARSONS        SUNNY     62  50  64 N6        30.00R
WICHITA INTL   MOSUNNY   59  41  51 N8        30.03F
WICHITA JABRA  SUNNY     59  44  57 N7        30.03F
WICHITA MCCONL SUNNY     58  40  51 NW6       30.03S
WINFIELD       SUNNY     59  47  64 NW10      30.04R
$$

KSZ007>012-019>026-033>040-048>060-102>105-211800-
NORTHEAST KANSAS

CITY           SKY/WX    TMP DP  RH WIND       PRES   REMARKS
CONCORDIA      SUNNY     62  36  37 W12       30.02F
EMPORIA        SUNNY     58  45  62 NW9       30.02S
LAWRENCE       SUNNY     64  46  52 CALM      30.01R
MANHATTAN      SUNNY     56  45  66 SE3       30.03F
MARYSVILLE     SUNNY     57  41  54 S8        30.03S
OLATHE IND     SUNNY     60  49  66 N7        30.00S
OLATHE EXE     SUNNY     61  49  64 N3        29.99S
SALINA         SUNNY     59  40  49 CALM      30.06R
TOPEKA BILLARD SUNNY     57  47  69 SW7       30.02S
TOPEKA FORBES  SUNNY     60  44  55 NW7       30.02S
$$




USA.gov is the U.S. government's official web portal to all federal, state and local government web resources and services.